| time (UTC) | temp F | wind direction | speed MPH | gust MPH | rain 1hr in | rain 24hr in | rain mn in | humidity % | barometer mb |
| 20260506175402 | 74 | 46 | 1.0 | 3.0 | 0.00 | 0.00 | 0.00 | 75 | |
| 20260506174859 | 75 | 87 | 3.0 | 8.0 | 0.00 | 0.00 | 0.00 | 76 | |
| 20260506174356 | 75 | 47 | 3.0 | 5.0 | 0.00 | 0.00 | 0.00 | 74 | |
| 20260506173854 | 74 | 32 | 2.0 | 5.0 | 0.00 | 0.00 | 0.00 | 73 | |
| 20260506173350 | 72 | 38 | 1.0 | 2.0 | 0.00 | 0.00 | 0.00 | 77 | |
| 20260506172848 | 71 | 9 | 2.0 | 6.0 | 0.00 | 0.00 | 0.00 | 78 | |
| 20260506172344 | 71 | 72 | 7.0 | 9.0 | 0.00 | 0.00 | 0.00 | 78 | |
| 20260506171842 | 70 | 30 | 4.0 | 7.0 | 0.00 | 0.00 | 0.00 | 79 | |
| 20260506171338 | 71 | 62 | 8.0 | 10.0 | 0.00 | 0.00 | 0.00 | 78 | |
| 20260506170836 | 70 | 66 | 3.0 | 10.0 | 0.00 | 0.00 | 0.00 | 80 | |
| 20260506170331 | 69 | 352 | 2.0 | 6.0 | 0.00 | 0.00 | 0.00 | 80 | |
| 20260506165826 | 69 | 47 | 5.0 | 7.0 | 0.00 | 0.00 | 0.00 | 79 | |
| 20260506165323 | 68 | 340 | 3.0 | 7.0 | 0.00 | 0.00 | 0.00 | 80 | |
| 20260506164819 | 68 | 33 | 5.0 | 10.0 | 0.00 | 0.00 | 0.00 | 79 | |
| 20260506164316 | 66 | 359 | 4.0 | 6.0 | 0.00 | 0.00 | 0.00 | 83 | |
| 20260506163813 | 66 | 29 | 7.0 | 8.0 | 0.00 | 0.00 | 0.00 | 82 | |
| 20260506163308 | 66 | 7 | 6.0 | 8.0 | 0.00 | 0.00 | 0.00 | 85 | |
| 20260506162804 | 66 | 348 | 7.0 | 10.0 | 0.00 | 0.00 | 0.00 | 85 | |
| 20260506162306 | 65 | 316 | 5.0 | 6.0 | 0.00 | 0.00 | 0.00 | 87 | |
| 20260506161759 | 65 | 341 | 9.0 | 17.0 | 0.00 | 0.00 | 0.00 | 87 | |
| 20260506161256 | 65 | 348 | 12.0 | 14.0 | 0.00 | 0.00 | 0.00 | 87 | |
| 20260506160754 | 66 | 359 | 11.0 | 15.0 | 0.00 | 0.00 | 0.00 | 86 | |
| 20260506160250 | 67 | 315 | 10.0 | 21.0 | 0.00 | 0.00 | 0.00 | 86 | |
| 20260506155749 | 69 | 328 | 17.0 | 20.0 | 0.00 | 0.00 | 0.00 | 85 | |
| 20260506155245 | 73 | 344 | 11.0 | 18.0 | 0.00 | 0.00 | 0.00 | 82 | |
| 20260506153358 | 77 | 60 | 1.0 | 3.0 | 0.00 | 0.00 | 0.00 | 85 | |
| 20260506152855 | 77 | 34 | 2.0 | 3.0 | 0.00 | 0.00 | 0.00 | 85 | |
| 20260506152352 | 77 | 76 | 2.0 | 2.0 | 0.00 | 0.00 | 0.00 | 85 | |
| 20260506151851 | 77 | 78 | 2.0 | 2.0 | 0.00 | 0.00 | 0.00 | 85 | |
| 20260506151347 | 77 | 74 | 0.0 | 2.0 | 0.00 | 0.00 | 0.00 | 85 | |
| 20260506150845 | 77 | 140 | 0.0 | 0.0 | 0.00 | 0.00 | 0.00 | 84 | |
| 20260506150341 | 77 | 119 | 3.0 | 3.0 | 0.00 | 0.00 | 0.00 | 84 | |
| 20260506145838 | 77 | 115 | 0.0 | 3.0 | 0.00 | 0.00 | 0.00 | 85 | |
| 20260506145334 | 77 | 139 | 2.0 | 7.0 | 0.00 | 0.00 | 0.00 | 85 | |
| 20260506144832 | 76 | 179 | 3.0 | 7.0 | 0.00 | 0.00 | 0.00 | 85 | |
| 20260506144328 | 76 | 165 | 2.0 | 5.0 | 0.00 | 0.00 | 0.00 | 86 | |
| 20260506143827 | 76 | 155 | 3.0 | 6.0 | 0.00 | 0.00 | 0.00 | 87 | |
| 20260506143323 | 75 | 202 | 2.0 | 5.0 | 0.00 | 0.00 | 0.00 | 88 | |
| 20260506142822 | 76 | 148 | 5.0 | 9.0 | 0.00 | 0.00 | 0.00 | 87 | |
| 20260506142319 | 76 | 138 | 3.0 | 8.0 | 0.00 | 0.00 | 0.00 | 86 | |
| 20260506141817 | 76 | 150 | 2.0 | 7.0 | 0.00 | 0.00 | 0.00 | 88 | |
| 20260506141315 | 75 | 178 | 4.0 | 6.0 | 0.00 | 0.00 | 0.00 | 89 | |
| 20260506140813 | 75 | 152 | 2.0 | 5.0 | 0.00 | 0.00 | 0.00 | 89 | |
| 20260506140309 | 75 | 150 | 2.0 | 2.0 | 0.00 | 0.00 | 0.00 | 90 | |
| 20260506135807 | 75 | 162 | 1.0 | 2.0 | 0.00 | 0.00 | 0.00 | 90 | |
| 20260506135305 | 75 | 58 | 0.0 | 1.0 | 0.00 | 0.00 | 0.00 | 91 | |
| 20260506134800 | 74 | 94 | 0.0 | 1.0 | 0.00 | 0.00 | 0.00 | 91 | |
| 20260506134256 | 74 | 121 | 4.0 | 7.0 | 0.00 | 0.00 | 0.00 | 91 | |
| 20260506133753 | 74 | 110 | 4.0 | 6.0 | 0.00 | 0.00 | 0.00 | 92 | |
| 20260506133250 | 74 | 151 | 3.0 | 3.0 | 0.00 | 0.00 | 0.00 | 92 | |
| 20260506132746 | 74 | 144 | 4.0 | 6.0 | 0.00 | 0.00 | 0.00 | 92 | |
| 20260506132244 | 74 | 113 | 3.0 | 5.0 | 0.00 | 0.00 | 0.00 | 91 | |
| 20260506131742 | 74 | 155 | 5.0 | 7.0 | 0.00 | 0.00 | 0.00 | 91 | |
| 20260506131237 | 74 | 159 | 3.0 | 5.0 | 0.00 | 0.00 | 0.00 | 92 | |
| 20260506130734 | 74 | 114 | 2.0 | 3.0 | 0.00 | 0.00 | 0.00 | 92 | |
| 20260506130231 | 74 | 123 | 3.0 | 3.0 | 0.00 | 0.00 | 0.00 | 92 | |
| 20260506125729 | 74 | 126 | 3.0 | 6.0 | 0.00 | 0.00 | 0.00 | 92 | |
| 20260506125227 | 74 | 115 | 3.0 | 5.0 | 0.00 | 0.00 | 0.00 | 93 | |
| 20260506124725 | 74 | 106 | 3.0 | 6.0 | 0.00 | 0.00 | 0.00 | 93 | |
| 20260506124223 | 74 | 109 | 2.0 | 5.0 | 0.00 | 0.00 | 0.00 | 93 | |
| 20260506123720 | 74 | 92 | 2.0 | 5.0 | 0.00 | 0.00 | 0.00 | 93 | |
| 20260506123219 | 74 | 137 | 2.0 | 3.0 | 0.00 | 0.00 | 0.00 | 92 | |
| 20260506122715 | 74 | 130 | 3.0 | 5.0 | 0.00 | 0.00 | 0.00 | 92 | |
| 20260506122212 | 74 | 134 | 0.0 | 0.0 | 0.00 | 0.00 | 0.00 | 92 | |
| 20260506121710 | 74 | 114 | 0.0 | 0.0 | 0.00 | 0.00 | 0.00 | 92 | |
| 20260506121206 | 74 | 111 | 0.0 | 0.0 | 0.00 | 0.00 | 0.00 | 92 | |
| 20260506120704 | 74 | 106 | 0.0 | 0.0 | 0.00 | 0.00 | 0.00 | 92 | |
| 20260506120201 | 74 | 88 | 0.0 | 0.0 | 0.00 | 0.00 | 0.00 | 92 | |
| 20260506115700 | 74 | 79 | 0.0 | 0.0 | 0.00 | 0.00 | 0.00 | 92 | |
| 20260506115158 | 74 | 86 | 0.0 | 0.0 | 0.00 | 0.00 | 0.00 | 92 | |
| 20260506114654 | 74 | 82 | 0.0 | 0.0 | 0.00 | 0.00 | 0.00 | 92 | |
| 20260506114152 | 74 | 78 | 0.0 | 0.0 | 0.00 | 0.00 | 0.00 | 91 | |
| 20260506113651 | 74 | 120 | 0.0 | 0.0 | 0.00 | 0.00 | 0.00 | 91 | |
| 20260506113148 | 74 | 123 | 0.0 | 0.0 | 0.00 | 0.00 | 0.00 | 91 | |
| 20260506112643 | 74 | 163 | 0.0 | 0.0 | 0.00 | 0.00 | 0.00 | 91 | |
| 20260506112142 | 74 | 170 | 0.0 | 0.0 | 0.00 | 0.00 | 0.00 | 91 | |
| 20260506111639 | 74 | 199 | 0.0 | 2.0 | 0.00 | 0.00 | 0.00 | 91 | |
| 20260506111137 | 74 | 183 | 1.0 | 1.0 | 0.00 | 0.00 | 0.00 | 91 | |
| 20260506110634 | 74 | 187 | 0.0 | 1.0 | 0.00 | 0.00 | 0.00 | 91 | |
| 20260506110131 | 74 | 178 | 1.0 | 2.0 | 0.00 | 0.00 | 0.00 | 91 | |
| 20260506105627 | 74 | 200 | 1.0 | 1.0 | 0.00 | 0.00 | 0.00 | 91 | |
| 20260506105125 | 74 | 185 | 2.0 | 2.0 | 0.00 | 0.00 | 0.00 | 91 | |
| 20260506104623 | 74 | 178 | 0.0 | 0.0 | 0.00 | 0.00 | 0.00 | 91 | |
| 20260506104120 | 74 | 187 | 1.0 | 2.0 | 0.00 | 0.00 | 0.00 | 91 | |
| 20260506103617 | 74 | 169 | 2.0 | 3.0 | 0.00 | 0.00 | 0.00 | 91 | |
| 20260506103114 | 74 | 197 | 5.0 | 7.0 | 0.00 | 0.00 | 0.00 | 91 | |
| 20260506102612 | 74 | 184 | 5.0 | 6.0 | 0.00 | 0.00 | 0.00 | 91 | |
| 20260506102109 | 74 | 221 | 7.0 | 8.0 | 0.00 | 0.00 | 0.00 | 91 | |
| 20260506101606 | 74 | 196 | 3.0 | 3.0 | 0.00 | 0.00 | 0.00 | 91 | |
| 20260506101102 | 74 | 183 | 7.0 | 8.0 | 0.00 | 0.00 | 0.00 | 91 | |
| 20260506100601 | 74 | 182 | 3.0 | 7.0 | 0.00 | 0.00 | 0.00 | 91 | |
| 20260506100059 | 74 | 179 | 5.0 | 9.0 | 0.00 | 0.00 | 0.00 | 91 | |
| 20260506095557 | 74 | 188 | 4.0 | 6.0 | 0.00 | 0.00 | 0.00 | 91 | |
| 20260506095054 | 74 | 174 | 4.0 | 6.0 | 0.00 | 0.00 | 0.00 | 92 | |
| 20260506094551 | 74 | 191 | 3.0 | 7.0 | 0.00 | 0.00 | 0.00 | 92 | |
| 20260506094049 | 74 | 189 | 2.0 | 3.0 | 0.00 | 0.00 | 0.00 | 92 | |
| 20260506093547 | 74 | 179 | 3.0 | 7.0 | 0.00 | 0.00 | 0.00 | 92 | |
| 20260506093044 | 74 | 188 | 3.0 | 6.0 | 0.00 | 0.00 | 0.00 | 93 | |
| 20260506092542 | 73 | 211 | 3.0 | 7.0 | 0.00 | 0.00 | 0.00 | 93 | |
| 20260506092038 | 73 | 204 | 5.0 | 8.0 | 0.00 | 0.00 | 0.00 | 93 | |
| 20260506091537 | 73 | 174 | 2.0 | 8.0 | 0.00 | 0.00 | 0.00 | 93 | |
| 20260506091034 | 73 | 225 | 7.0 | 9.0 | 0.00 | 0.00 | 0.00 | 93 | |
| 20260506090532 | 73 | 187 | 5.0 | 8.0 | 0.00 | 0.00 | 0.00 | 93 | |
| 20260506090028 | 74 | 176 | 7.0 | 9.0 | 0.00 | 0.00 | 0.00 | 92 | |
| 20260506085525 | 74 | 185 | 6.0 | 11.0 | 0.00 | 0.00 | 0.00 | 92 | |
| 20260506085021 | 74 | 220 | 7.0 | 14.0 | 0.00 | 0.00 | 0.00 | 91 | |
| 20260506084518 | 74 | 205 | 5.0 | 9.0 | 0.00 | 0.00 | 0.00 | 91 | |
| 20260506084014 | 74 | 195 | 3.0 | 8.0 | 0.00 | 0.00 | 0.00 | 91 | |
| 20260506083511 | 74 | 159 | 7.0 | 8.0 | 0.00 | 0.00 | 0.00 | 91 | |
| 20260506083009 | 74 | 176 | 5.0 | 10.0 | 0.00 | 0.00 | 0.00 | 91 | |
| 20260506082506 | 74 | 188 | 5.0 | 8.0 | 0.00 | 0.00 | 0.00 | 91 | |
| 20260506082001 | 74 | 166 | 8.0 | 14.0 | 0.00 | 0.00 | 0.00 | 91 | |
| 20260506081500 | 74 | 183 | 7.0 | 13.0 | 0.00 | 0.00 | 0.00 | 91 | |
| 20260506080957 | 74 | 169 | 7.0 | 11.0 | 0.00 | 0.00 | 0.00 | 91 | |
| 20260506080454 | 74 | 184 | 6.0 | 10.0 | 0.00 | 0.00 | 0.00 | 91 | |
| 20260506073437 | 75 | 172 | 5.0 | 10.0 | 0.00 | 0.00 | 0.00 | 89 | |
| 20260506072935 | 75 | 191 | 5.0 | 10.0 | 0.00 | 0.00 | 0.00 | 89 | |
| 20260506072432 | 75 | 181 | 8.0 | 11.0 | 0.00 | 0.00 | 0.00 | 89 | |
| 20260506071930 | 75 | 185 | 9.0 | 14.0 | 0.00 | 0.00 | 0.00 | 89 | |
| 20260506071427 | 75 | 188 | 8.0 | 16.0 | 0.00 | 0.00 | 0.00 | 89 | |
| 20260506070924 | 75 | 135 | 8.0 | 14.0 | 0.00 | 0.00 | 0.00 | 89 | |
| 20260506070421 | 75 | 177 | 8.0 | 10.0 | 0.00 | 0.00 | 0.00 | 88 | |
| 20260506062358 | 75 | 197 | 9.0 | 11.0 | 0.00 | 0.00 | 0.00 | 88 | |
| 20260506061854 | 75 | 181 | 9.0 | 11.0 | 0.00 | 0.00 | 0.00 | 88 | |
| 20260506061351 | 75 | 176 | 17.0 | 21.0 | 0.00 | 0.00 | 0.00 | 88 | |
| 20260506060849 | 75 | 193 | 6.0 | 11.0 | 0.00 | 0.00 | 0.00 | 88 | |
| 20260506060347 | 75 | 185 | 7.0 | 10.0 | 0.00 | 0.00 | 0.00 | 88 | |
| 20260506051318 | 75 | 191 | 5.0 | 14.0 | 0.00 | 0.00 | 0.00 | 89 | |
| 20260506050816 | 75 | 196 | 5.0 | 9.0 | 0.00 | 0.00 | 0.00 | 89 | |
| 20260506050314 | 75 | 166 | 5.0 | 8.0 | 0.00 | 0.00 | 0.00 | 89 | |
| 20260506044804 | 76 | 181 | 6.0 | 9.0 | 0.00 | 0.00 | 0.00 | 89 | |
| 20260506044301 | 76 | 186 | 1.0 | 7.0 | 0.00 | 0.00 | 0.00 | 89 | |
| 20260506043759 | 76 | 192 | 4.0 | 8.0 | 0.00 | 0.00 | 0.00 | 89 | |
| 20260506043256 | 76 | 148 | 7.0 | 10.0 | 0.00 | 0.00 | 0.00 | 88 | |
| 20260506042755 | 76 | 172 | 5.0 | 11.0 | 0.00 | 0.00 | 0.00 | 88 | |
| 20260506042253 | 75 | 165 | 7.0 | 10.0 | 0.00 | 0.00 | 0.00 | 89 | |
| 20260506041751 | 75 | 151 | 7.0 | 14.0 | 0.00 | 0.00 | 0.00 | 89 | |
| 20260506041248 | 75 | 135 | 5.0 | 10.0 | 0.00 | 0.00 | 0.00 | 89 | |
| 20260506040745 | 75 | 137 | 6.0 | 9.0 | 0.00 | 0.00 | 0.00 | 89 | |
| 20260506040242 | 75 | 130 | 4.0 | 10.0 | 0.00 | 0.00 | 0.00 | 89 | |
| 20260506035739 | 75 | 158 | 6.0 | 9.0 | 0.00 | 0.00 | 0.00 | 89 | |
| 20260506035236 | 75 | 163 | 5.0 | 7.0 | 0.00 | 0.00 | 0.00 | 89 | |
| 20260506034733 | 75 | 125 | 2.0 | 5.0 | 0.00 | 0.00 | 0.00 | 89 | |
| 20260506034230 | 75 | 165 | 3.0 | 7.0 | 0.00 | 0.00 | 0.00 | 88 | |
| 20260506033727 | 76 | 163 | 3.0 | 8.0 | 0.00 | 0.00 | 0.00 | 88 | |
| 20260506033224 | 76 | 146 | 3.0 | 8.0 | 0.00 | 0.00 | 0.00 | 88 | |
| 20260506032721 | 76 | 162 | 3.0 | 10.0 | 0.00 | 0.00 | 0.00 | 87 | |
| 20260506032218 | 76 | 189 | 6.0 | 8.0 | 0.00 | 0.00 | 0.00 | 87 | |
| 20260506031714 | 76 | 176 | 7.0 | 9.0 | 0.00 | 0.00 | 0.00 | 87 | |
| 20260506031212 | 76 | 184 | 5.0 | 7.0 | 0.00 | 0.00 | 0.00 | 86 | |
| 20260506030710 | 76 | 132 | 4.0 | 8.0 | 0.00 | 0.00 | 0.00 | 86 | |
| 20260506030207 | 76 | 171 | 10.0 | 13.0 | 0.00 | 0.00 | 0.00 | 86 | |
| 20260506025704 | 77 | 187 | 5.0 | 9.0 | 0.00 | 0.00 | 0.00 | 85 | |
| 20260506025200 | 77 | 170 | 3.0 | 9.0 | 0.00 | 0.00 | 0.00 | 85 | |
| 20260506024657 | 77 | 138 | 2.0 | 8.0 | 0.00 | 0.00 | 0.00 | 84 | |
| 20260506024154 | 77 | 205 | 5.0 | 9.0 | 0.00 | 0.00 | 0.00 | 83 | |
| 20260506023650 | 78 | 160 | 4.0 | 9.0 | 0.00 | 0.00 | 0.00 | 83 | |
| 20260506023147 | 78 | 190 | 8.0 | 10.0 | 0.00 | 0.00 | 0.00 | 82 | |
| 20260506022644 | 78 | 160 | 3.0 | 8.0 | 0.00 | 0.00 | 0.00 | 81 | |
| 20260506022142 | 78 | 149 | 5.0 | 7.0 | 0.00 | 0.00 | 0.00 | 81 | |
| 20260506021640 | 78 | 183 | 2.0 | 7.0 | 0.00 | 0.00 | 0.00 | 81 | |
| 20260506021136 | 78 | 133 | 3.0 | 10.0 | 0.00 | 0.00 | 0.00 | 80 | |
| 20260506020633 | 78 | 155 | 1.0 | 6.0 | 0.00 | 0.00 | 0.00 | 80 | |
| 20260506020131 | 78 | 164 | 3.0 | 7.0 | 0.00 | 0.00 | 0.00 | 80 | |
| 20260506015628 | 78 | 161 | 6.0 | 9.0 | 0.00 | 0.00 | 0.00 | 80 | |
| 20260506015125 | 79 | 130 | 6.0 | 11.0 | 0.00 | 0.00 | 0.00 | 80 | |
| 20260506014623 | 79 | 138 | 4.0 | 7.0 | 0.00 | 0.00 | 0.00 | 79 | |
| 20260506014118 | 79 | 134 | 3.0 | 5.0 | 0.00 | 0.00 | 0.00 | 79 | |
| 20260506013617 | 79 | 125 | 2.0 | 7.0 | 0.00 | 0.00 | 0.00 | 79 | |
| 20260506013113 | 79 | 145 | 5.0 | 7.0 | 0.00 | 0.00 | 0.00 | 79 | |
| 20260506012609 | 79 | 148 | 6.0 | 8.0 | 0.00 | 0.00 | 0.00 | 78 | |
| 20260506012106 | 80 | 133 | 3.0 | 7.0 | 0.00 | 0.00 | 0.00 | 78 | |
| 20260506011604 | 80 | 124 | 4.0 | 6.0 | 0.00 | 0.00 | 0.00 | 77 | |
| 20260506011059 | 80 | 141 | 3.0 | 6.0 | 0.00 | 0.00 | 0.00 | 77 | |
| 20260506010554 | 80 | 148 | 3.0 | 6.0 | 0.00 | 0.00 | 0.00 | 76 | |
| 20260506010050 | 81 | 161 | 2.0 | 7.0 | 0.00 | 0.00 | 0.00 | 76 | |
| 20260506005547 | 81 | 140 | 3.0 | 5.0 | 0.00 | 0.00 | 0.00 | 75 | |
| 20260506005043 | 81 | 157 | 2.0 | 3.0 | 0.00 | 0.00 | 0.00 | 75 | |
| 20260506004541 | 82 | 134 | 5.0 | 6.0 | 0.00 | 0.00 | 0.00 | 74 | |
| 20260506004037 | 82 | 161 | 2.0 | 2.0 | 0.00 | 0.00 | 0.00 | 74 | |
| 20260506003534 | 82 | 147 | 2.0 | 3.0 | 0.00 | 0.00 | 0.00 | 73 | |
| 20260506003030 | 82 | 140 | 2.0 | 5.0 | 0.00 | 0.00 | 0.00 | 73 | |
| 20260506002526 | 82 | 143 | 2.0 | 5.0 | 0.00 | 0.00 | 0.00 | 72 | |
| 20260506002022 | 82 | 163 | 4.0 | 6.0 | 0.00 | 0.00 | 0.00 | 71 | |
| 20260506001518 | 82 | 170 | 2.0 | 5.0 | 0.00 | 0.00 | 0.00 | 71 | |
| 20260506001016 | 82 | 162 | 3.0 | 6.0 | 0.00 | 0.00 | 0.00 | 71 | |
| 20260506000513 | 82 | 202 | 7.0 | 8.0 | 0.00 | 0.00 | 0.00 | 71 | |
| 20260506000010 | 82 | 194 | 3.0 | 13.0 | 0.00 | 0.00 | 0.00 | 70 | |
| 20260505235508 | 82 | 188 | 7.0 | 9.0 | 0.00 | 0.00 | 0.00 | 70 | |
| 20260505235004 | 83 | 177 | 7.0 | 11.0 | 0.00 | 0.00 | 0.00 | 69 | |
| 20260505234502 | 83 | 182 | 7.0 | 10.0 | 0.00 | 0.00 | 0.00 | 69 | |
| 20260505233958 | 83 | 217 | 5.0 | 7.0 | 0.00 | 0.00 | 0.00 | 70 | |
| 20260505233456 | 83 | 211 | 4.0 | 8.0 | 0.00 | 0.00 | 0.00 | 70 | |
| 20260505232953 | 83 | 188 | 11.0 | 13.0 | 0.00 | 0.00 | 0.00 | 69 | |
| 20260505232451 | 83 | 187 | 7.0 | 11.0 | 0.00 | 0.00 | 0.00 | 69 | |
| 20260505231948 | 83 | 179 | 3.0 | 9.0 | 0.00 | 0.00 | 0.00 | 70 | |
| 20260505231445 | 82 | 170 | 5.0 | 10.0 | 0.00 | 0.00 | 0.00 | 70 | |
| 20260505230944 | 83 | 192 | 5.0 | 11.0 | 0.00 | 0.00 | 0.00 | 69 | |
| 20260505230441 | 83 | 183 | 6.0 | 10.0 | 0.00 | 0.00 | 0.00 | 69 | |
| 20260505225937 | 83 | 194 | 8.0 | 13.0 | 0.00 | 0.00 | 0.00 | 69 | |
| 20260505225434 | 83 | 146 | 6.0 | 10.0 | 0.00 | 0.00 | 0.00 | 70 | |
| 20260505224930 | 83 | 188 | 7.0 | 13.0 | 0.00 | 0.00 | 0.00 | 69 | |
| 20260505224427 | 83 | 157 | 4.0 | 7.0 | 0.00 | 0.00 | 0.00 | 69 | |
| 20260505223924 | 83 | 178 | 2.0 | 11.0 | 0.00 | 0.00 | 0.00 | 69 | |
| 20260505223421 | 83 | 174 | 7.0 | 13.0 | 0.00 | 0.00 | 0.00 | 68 | |
| 20260505222918 | 83 | 160 | 11.0 | 16.0 | 0.00 | 0.00 | 0.00 | 68 | |
| 20260505222414 | 83 | 213 | 6.0 | 10.0 | 0.00 | 0.00 | 0.00 | 69 | |
| 20260505221910 | 84 | 194 | 3.0 | 11.0 | 0.00 | 0.00 | 0.00 | 69 | |
| 20260505221408 | 84 | 223 | 6.0 | 10.0 | 0.00 | 0.00 | 0.00 | 68 | |
| 20260505220904 | 84 | 201 | 8.0 | 9.0 | 0.00 | 0.00 | 0.00 | 66 | |
| 20260505220401 | 84 | 175 | 5.0 | 10.0 | 0.00 | 0.00 | 0.00 | 68 | |
| 20260505215859 | 85 | 146 | 10.0 | 13.0 | 0.00 | 0.00 | 0.00 | 65 | |
| 20260505215357 | 85 | 170 | 2.0 | 7.0 | 0.00 | 0.00 | 0.00 | 66 | |
| 20260505214855 | 84 | 178 | 5.0 | 9.0 | 0.00 | 0.00 | 0.00 | 67 | |
| 20260505214352 | 84 | 167 | 4.0 | 15.0 | 0.00 | 0.00 | 0.00 | 67 | |
| 20260505213849 | 84 | 168 | 9.0 | 16.0 | 0.00 | 0.00 | 0.00 | 67 | |
| 20260505213347 | 84 | 162 | 9.0 | 16.0 | 0.00 | 0.00 | 0.00 | 66 | |
| 20260505212843 | 84 | 231 | 9.0 | 16.0 | 0.00 | 0.00 | 0.00 | 65 | |
| 20260505212340 | 84 | 183 | 8.0 | 11.0 | 0.00 | 0.00 | 0.00 | 65 | |
| 20260505211836 | 84 | 249 | 7.0 | 15.0 | 0.00 | 0.00 | 0.00 | 66 | |
| 20260505211334 | 84 | 205 | 4.0 | 9.0 | 0.00 | 0.00 | 0.00 | 66 | |
| 20260505210830 | 84 | 151 | 5.0 | 11.0 | 0.00 | 0.00 | 0.00 | 66 | |
| 20260505210327 | 85 | 142 | 9.0 | 16.0 | 0.00 | 0.00 | 0.00 | 65 | |
| 20260505205824 | 84 | 187 | 6.0 | 9.0 | 0.00 | 0.00 | 0.00 | 65 | |
| 20260505205322 | 84 | 153 | 6.0 | 13.0 | 0.00 | 0.00 | 0.00 | 66 | |
| 20260505204818 | 84 | 184 | 9.0 | 11.0 | 0.00 | 0.00 | 0.00 | 65 | |
| 20260505204317 | 84 | 214 | 9.0 | 13.0 | 0.00 | 0.00 | 0.00 | 66 | |
| 20260505203814 | 84 | 158 | 3.0 | 14.0 | 0.00 | 0.00 | 0.00 | 65 | |
| 20260505203310 | 84 | 199 | 8.0 | 16.0 | 0.00 | 0.00 | 0.00 | 65 | |
| 20260505202806 | 83 | 105 | 4.0 | 11.0 | 0.00 | 0.00 | 0.00 | 67 | |
| 20260505202306 | 84 | 179 | 5.0 | 14.0 | 0.00 | 0.00 | 0.00 | 66 | |
| 20260505201759 | 83 | 205 | 3.0 | 10.0 | 0.00 | 0.00 | 0.00 | 69 | |
| 20260505201257 | 83 | 207 | 8.0 | 11.0 | 0.00 | 0.00 | 0.00 | 68 | |
| 20260505200755 | 83 | 199 | 6.0 | 9.0 | 0.00 | 0.00 | 0.00 | 68 | |
| 20260505200252 | 83 | 168 | 8.0 | 11.0 | 0.00 | 0.00 | 0.00 | 67 | |
| 20260505195747 | 83 | 228 | 6.0 | 13.0 | 0.00 | 0.00 | 0.00 | 66 | |
| 20260505195245 | 83 | 181 | 7.0 | 11.0 | 0.00 | 0.00 | 0.00 | 67 | |
| 20260505194742 | 83 | 127 | 7.0 | 11.0 | 0.00 | 0.00 | 0.00 | 68 | |
| 20260505194238 | 82 | 147 | 3.0 | 10.0 | 0.00 | 0.00 | 0.00 | 68 | |
| 20260505193734 | 82 | 164 | 1.0 | 8.0 | 0.00 | 0.00 | 0.00 | 69 | |
| 20260505193232 | 82 | 195 | 9.0 | 11.0 | 0.00 | 0.00 | 0.00 | 68 | |
| 20260505192730 | 83 | 184 | 6.0 | 14.0 | 0.00 | 0.00 | 0.00 | 69 | |
| 20260505192227 | 82 | 211 | 4.0 | 14.0 | 0.00 | 0.00 | 0.00 | 69 | |
| 20260505191720 | 83 | 203 | 11.0 | 14.0 | 0.00 | 0.00 | 0.00 | 67 | |
| 20260505191218 | 82 | 209 | 4.0 | 9.0 | 0.00 | 0.00 | 0.00 | 70 | |
| 20260505190714 | 82 | 172 | 6.0 | 15.0 | 0.00 | 0.00 | 0.00 | 69 | |
| 20260505190213 | 82 | 230 | 10.0 | 13.0 | 0.00 | 0.00 | 0.00 | 70 | |
| 20260505185710 | 81 | 157 | 6.0 | 8.0 | 0.00 | 0.00 | 0.00 | 71 | |
| 20260505185207 | 81 | 174 | 4.0 | 14.0 | 0.00 | 0.00 | 0.00 | 70 | |
| 20260505184703 | 81 | 215 | 6.0 | 9.0 | 0.00 | 0.00 | 0.00 | 71 | |
| 20260505184200 | 81 | 214 | 8.0 | 10.0 | 0.00 | 0.00 | 0.00 | 73 | |
| 20260505183657 | 80 | 187 | 3.0 | 11.0 | 0.00 | 0.00 | 0.00 | 74 | |
| 20260505183155 | 79 | 237 | 6.0 | 11.0 | 0.00 | 0.00 | 0.00 | 74 | |
| 20260505182650 | 78 | 184 | 3.0 | 11.0 | 0.00 | 0.00 | 0.00 | 76 | |
| 20260505182148 | 78 | 177 | 11.0 | 15.0 | 0.00 | 0.00 | 0.00 | 76 | |
| 20260505181644 | 78 | 226 | 11.0 | 14.0 | 0.00 | 0.00 | 0.00 | 77 | |
| 20260505181142 | 77 | 236 | 9.0 | 11.0 | 0.00 | 0.00 | 0.00 | 78 | |
| 20260505180638 | 77 | 204 | 4.0 | 11.0 | 0.00 | 0.00 | 0.00 | 79 | |
| 20260505180135 | 77 | 200 | 6.0 | 10.0 | 0.00 | 0.00 | 0.00 | 79 | |
| 20260505175631 | 76 | 230 | 8.0 | 11.0 | 0.00 | 0.00 | 0.00 | 80 |